Zurück zum Katalog

STARLINK-34876

AktivKommunikationSSO
NORAD 65400·PAYLOAD·🇺🇸 United States

Gestartet Aug 30, 2025 von Vandenberg Space Force Base

Loading…

Nächste Überflüge (nächste 24 Stunden)

TLE

AktuellSource: CelesTrak SupGP

Epoche: Sep 15, 2026, 03:49 UTC

1 65400C 25191X   26258.15951389 -.00005877  00000+0 -18232-3 0  2582
2 65400  97.2842 124.2540 0001873  95.8177 106.4794 15.33461974    18

Verfolge STARLINK-34876 in Echtzeit mit AllMySat

Download on the App Store